Flag for Canada Weather past 2 weeks in Cranbrook, British Columbia, Canada

Now
19 °F

Passing clouds.


Feels Like: 11 °F
Forecast: 13 / 25 °F
Wind: 6 mph from West

Location: Cranbrook

Current Time: Dec 25, 2014 at 3:47:57 AM

Latest Report: Dec 25, 2014 at 3:00 AM


Visibility: 20 mi

Pressure: 29.96 "Hg

Humidity: 86%

Dew point: 16 °F

Location of CranbrookLocation

Historic Weather in Cranbrook — Graph

°F

Cranbrook temperature yesterday

Maximum temperature yesterday: 30 °F (at 12:00 PM)
Minimum temperature yesterday: 25 °F (at 10:00 PM)
Average temperature yesterday: 28 °F

Past Weeks' High & Low Weather Summary

 TemperatureHumidityPressure
High45 °F (Dec 12, 2:00 PM)100% (Dec 10, 7:00 AM)30.44 "Hg (Dec 10, 7:00 AM)
Low14 °F (Dec 23, 3:00 AM)64% (Dec 14, 4:00 PM)29.46 "Hg (Dec 21, 7:00 AM)
Average30 °F87%29.99 "Hg
* Reported Dec 10 2:00 AM — Dec 25 2:00 AM, Cranbrook, Weather by CustomWeather, © 2014

Note: Actual official high and low records may vary slightly from our data, if they occured in-between our weather recording intervals... More about our weather records

Advertising

Cranbrook weather history for previous 24 hours

 ConditionsComfort  
Time TempWeatherWind HumidityBarometerVisibility
2:00 AM
Dec 25
18 °FPassing clouds.5 mph93%29.94 "Hg20 mi
1:00 AM16 °FPassing clouds.6 mph86%29.92 "Hg20 mi
12:00 AM19 °FPassing clouds.6 mph93%29.89 "Hg20 mi
11:00 PM
Dec 24
25 °FPassing clouds.5 mph93%29.86 "Hg20 mi
10:00 PM25 °FPassing clouds.2 mph93%29.83 "Hg20 mi
9:00 PM27 °FPassing clouds.5 mph93%29.80 "Hg20 mi
8:00 PM27 °FPassing clouds.8 mph93%29.78 "Hg20 mi
7:00 PM28 °FPartly cloudy.6 mph86%29.76 "Hg14 mi
6:00 PM28 °FOvercast.3 mph100%29.74 "Hg15 mi
5:00 PM28 °FMostly cloudy.7 mph100%29.73 "Hg15 mi
4:00 PM30 °FCloudy.6 mph93%29.70 "Hg10 mi
3:00 PM30 °FFog.2 mph100%29.69 "Hg12 mi
2:00 PM30 °FFog.5 mph100%29.69 "Hg10 mi
1:00 PM30 °FLight snow. Ice fog.6 mph100%29.71 "Hg1 mi
12:00 PM30 °FIce fog.2 mph93%29.73 "Hg4 mi
11:00 AM28 °FIce fog.3 mph100%29.75 "Hg3 mi
10:00 AM28 °FFog.2 mph100%29.76 "Hg8 mi
9:00 AM28 °FFog.2 mph93%29.77 "Hg8 mi
8:00 AM28 °FIce fog.3 mph93%29.78 "Hg6 mi
7:00 AM28 °FMostly cloudy.2 mph93%29.80 "Hg8 mi
6:48 AM27 °FMostly cloudy.No wind100%29.82 "Hg8 mi
6:00 AM28 °FLight snow. Overcast.No wind100%29.82 "Hg4 mi
5:00 AM28 °FLight snow. Mostly cloudy.2 mph93%29.85 "Hg3 mi
4:00 AM28 °FLight snow. Mostly cloudy.No wind100%29.88 "Hg3 mi
3:00 AM28 °FLight snow. Mostly cloudy.No wind93%29.90 "Hg3 mi
Weather by CustomWeather, © 2014

See weather overviewHow to use our weather pages